Regional Weather Roundup
Issued by NWS Wakefield, VA

Home | Current Version | Previous Version | Graphics & Text | Print | Product List | Glossary On
Versions: 1 2 3 4 5 6 7 8 9 10 11 12 13 14 15 16 17 18 19 20 21 22 23 24 25 26 27 28 29 30 31 32 33 34 35 36 37 38 39 40 41 42 43 44 45 46 47 48 49 50
000
ASUS41 KAKQ 290014
RWRAKQ

REGIONAL WEATHER ROUNDUP
NATIONAL WEATHER SERVICE WAKEFIELD VA
800 PM EDT FRI AUG 28 2015

Note: "fair" indicates few or no clouds below 12,000 feet with no
significant weather and/or obstructions to visibility. * = Denotes
station may not report precipitation (e.g., rain,snow,etc.),
thunder or fog.

VAZ042-051-052>054-056-290100-
NORTHERN VIRGINIA

CITY           SKY/WX    TMP DP  RH WIND       PRES   REMARKS
WASH NATIONAL  PTCLDY    77  62  59 SE9       30.15R
DULLES         PTCLDY    76  58  53 S5        30.15R
FORT BELVOIR   CLEAR     73  63  70 E3        30.14R
QUANTICO       CLEAR     74  65  73 NW3       30.15R
FREDERICKSBRG* CLEAR     78  64  62 SE3       30.13R
STAFFORD*      CLEAR     71  64  78 CALM      30.18R
WARRENTON      CLEAR     72  65  80 CALM      30.14R
CULPEPER*      CLEAR     70  64  82 CALM      30.15R
MANASSAS*      CLEAR     72  66  83 CALM      30.14S
LEESBURG*      CLEAR     79  63  57 CALM      30.16R
WINCHESTER     CLEAR     73  61  64 SE3       30.16R
FRONT ROYAL*   FAIR      73  61  64 CALM      30.14R
LURAY*         CLOUDY    75  61  60 E3        30.15R
$$

VAZ048-049-060>072-079>083-290100-
CENTRAL AND SOUTH CENTRAL VIRGINIA

CITY           SKY/WX    TMP DP  RH WIND       PRES   REMARKS
RICHMOND       CLEAR     75  61  61 E6        30.14S
CHESTERFIELD*  FAIR      75  54  46 SE3       30.15S
PETERSBURG*    CLEAR     69  68  94 CALM      30.15S
HANOVER        CLEAR     71  64  78 CALM      30.16R
TAPPAHANNOCK*  CLEAR     73  56  56 CALM      30.16R
QUINTON*       FAIR      72  64  74 E7        30.14S
CHARLOTTSVILLE   N/A     77  62  59 SE5       30.14R
GORDONSVILLE*  FAIR      72  65  80 CALM      30.14R
ORANGE*        PTCLDY    77  61  57 CALM      30.16R
LOUISA*        CLEAR     72  64  78 CALM      30.14R
BUMPASS*       FAIR      72  61  70 CALM      30.14R
FARMVILLE*     CLEAR     76  58  54 CALM      30.13R
CREWE*         FAIR     N/A N/A N/A CALM      30.14S
FORT PICKETT*  FAIR      71  63  76 CALM      30.15S
CHASE CITY*    FAIR      75  65  69 CALM      30.15R
CLARKSVILLE*   FAIR      73  61  64 CALM      30.14R
SOUTH HILL*    CLEAR     71  64  79 CALM      30.20S
LAWRENCEVILLE* FAIR      70  64  83 CALM      30.15R
EMPORIA*       CLEAR     70  61  73 E3        30.17R
$$

VAZ088>098-290100-
SOUTHEAST VIRGINIA

CITY           SKY/WX    TMP DP  RH WIND       PRES   REMARKS
NORFOLK        CLEAR     75  58  55 E6        30.16S
VIRGINIA BEACH PTCLDY    75  58  55 E3        30.16S
NORFOLK NAVAL  PTCLDY    74  60  61 E5        30.18R
WEST POINT*    CLEAR     73  58  60 E3        30.17S
SALUDA*        FAIR      73  57  58 CALM      30.15S
NEWPORT NEWS   CLEAR     73  57  57 E6        30.16S
LANGLEY AFB    CLEAR     75  61  60 SE7       30.15S
FORT EUSTIS    CLEAR     76  58  52 E5        30.14S
WILLIAMSBURG*  CLEAR     75  63  64 E3        30.16S
HR EXEC AP*      N/A     64  57  77 E3        30.18S
FRANKLIN*      CLEAR     72  60  65 CALM      30.16R
WAKEFIELD      CLEAR     74  58  57 CALM      30.16R
$$

VAZ020-022-025-037-045-290100-
WEST CENTRAL AND SOUTHWEST VIRGINIA

CITY           SKY/WX    TMP DP  RH WIND       PRES   REMARKS
STAUNTON*      CLOUDY    78  61  55 CALM      30.18R
WAYNESBORO*    CLOUDY    75  62  62 CALM      30.17R
HOT SPRINGS VA MOCLDY    66  59  76 S7        30.27R
LYNCHBURG      CLEAR     73  59  61 S3        30.16R
DANVILLE       CLEAR     75  61  61 CALM      30.14R
SOUTH BOSTON*  FAIR      75  60  58 CALM      30.15R
MARTINSVILLE   CLEAR     71  64  78 CALM      30.18R
ROANOKE        PTCLDY    76  59  55 SE7       30.18R
BLACKSBURG     CLOUDY    74  62  65 SE6       30.23R
DUBLIN*        CLOUDY    74  62  65 S3        30.21R
MARION*        CLEAR     72  60  65 CALM      30.24R
HILLSVILLE*    CLEAR     70  60  69 S3        30.22S
RICHLANDS*     FAIR      73  29  19 NE5       30.21R
WISE*          CLEAR     72  59  64 N6        30.22R
ABINGDON*      PTCLDY    74  60  61 CALM      30.18R
$$

MDZ021>025-VAZ099-100-290100-
SOUTHERN MARYLAND AND THE DELMARVA PENINSULA

CITY           SKY/WX    TMP DP  RH WIND       PRES   REMARKS
PATUXENT RIVER PTCLDY    72  59  63 S3        30.15S
BAY BRIDGE APT   N/A     72  55  56 CALM      30.15S
LEONARDTOWN    CLEAR     70  57  64 CALM      30.17R
DOVER          CLEAR     73  62  69 S6        30.14R
GEORGETOWN     CLEAR     71  56  58 S3        30.17R
EASTON         NOT AVBL
CAMBRIDGE      CLEAR     72  61  68 CALM      30.15S
SALISBURY      CLEAR     69  61  75 SE5       30.16S
OCEAN CITY     CLEAR     72  56  57 S3        30.17S
WALLOPS ISLAND CLEAR     72  58  61 SE6       30.18R
ACCOMACK*      CLEAR     64  50  59 SE6       30.17S
$$

NCZ012>017-030>032-290100-
NORTH CENTRAL AND EASTERN NORTH CAROLINA

CITY           SKY/WX    TMP DP  RH WIND       PRES   REMARKS
ROANOKE RAPIDS FAIR      73  59  60 E3        30.15R
RALEIGH        PTCLDY    79  57  46 E5        30.14S
ELIZABETH CITY PTCLDY    72  62  71 E7        30.17R
AHOSKIE*       CLEAR     74  59  58 CALM      30.17R
EDENTON*       PTCLDY    73  60  65 E3        30.16R
CURRITUCK*     PTCLDY    75  59  58 E3        30.18R
KILL DEVIL HLS PTCLDY    75  64  67 NE8       30.15R
MANTEO         PTCLDY    74  65  72 NE9       30.16S
CAPE HATTERAS  MOCLDY    76  66  71 NE8G17    30.14R
TARBORO*       FAIR      76  61  60 E3        30.16R
GOLDSBORO      MOCLDY    76  64  65 E6        30.13R
WASHINGTON     MOCLDY    73  62  68 NE5       30.15S
GREENVILLE     MOCLDY    77  63  61 E5        30.17R
NEW BERN       PTCLDY    76  61  59 NE7       30.15R
WILMINGTON     MOCLDY    77  68  73 NE6       30.12R
$$

VAZ048-290100-
ELSEWHERE

CITY           SKY/WX    TMP DP  RH WIND       PRES   REMARKS
HARRISBURG PA  PTCLDY    74  59  59 CALM      30.15R
BALTIMORE      PTCLDY    73  60  63 CALM      30.14S
ANNAPOLIS      CLEAR     77  58  51 SE7       30.14S
ANDREWS AFB    CLEAR     71  61  70 SE5       30.15R
PHILADELPHIA   PTCLDY    80  52  37 NW7       30.15R
HENDERSON NC   CLEAR     75  58  55 CALM      30.15S
GREENSBORO     PTCLDY    78  55  44 SE5       30.14S
ROCKY MOUNT    PTCLDY    78  61  55 E5        30.15R
$$

VAZ100-290100-
MARINE

STATION/POSITION TIME  TEMP    WIND        PRES    WAVE   SWELL
                       AIR SEA DIR/SP/G            HT/PER HT/PER
                 (UTC) (F)     (DEG/KT/KT) (MB)    (FT/S) (FT/S)
15NM E FENWICK I 2350   75 78  140/  6/  8 1021.5R   3/10   3/10
CHESAPEAKE LGHT  2300   76      60/  9/  9 1022.0R
CAPE HENRY BUOY  2328      79                N/A     3/11   2/11
CAPE CHARLES BUO 2326      79                N/A     3/11   3/11
OFFSHORE WE BUOY 2311      78                N/A     3/11   3/11
64NM E OF VA BCH 2350   76 80   40/ 12/ 16 1020.8R   4/10   3/10
44100 DUCK FRF   2324      78                N/A     4/10   2/11
44056 DUCK FRF   2311      79                N/A     4/10   2/11
DIAMOND SHLS NC  2350   79 83   30/ 17/ 21 1019.7R   4/11   3/11
CAPE LOOKOUT NC  0000   78      40/ 18/ 22 1019.8R
$$



USA.gov is the U.S. government's official web portal to all federal, state and local government web resources and services.